Regional Weather Roundup
Issued by NWS Newport/Morehead, NC

Current Version | Previous Version | Graphics & Text | Print | Product List | Glossary Off
Versions: 1 2 3 4 5 6 7 8 9 10 11 12 13 14 15 16 17 18 19 20 21 22 23 24 25 26 27 28 29 30 31 32 33 34 35 36 37 38 39 40 41 42 43 44 45 46 47 48 49 50

000
ASUS42 KMHX 291026
RWRMHX
WEATHER ROUNDUP FOR EASTERN NORTH CAROLINA
NATIONAL WEATHER SERVICE NEWPORT/MOREHEAD CITY NC
600 AM EDT MON MAY 29 2017

NOTE: "FAIR" INDICATES FEW OR NO CLOUDS BELOW 12,000 FEET
WITH NO SIGNIFICANT WEATHER AND/OR OBSTRUCTIONS TO VISIBILITY

NCZ015>017-031-032-045>047-102-103-291100-
NORTH COAST

CITY           SKY/WX    TMP DP  RH WIND       PRES   REMARKS
EDENTON        CLEAR     73  68  86 CALM      29.83S
ELIZABETH CITY FOG       70  70 100 W5        29.82R VSB 1
KITTY HAWK     FOG       67  67 100 CALM      29.81R VSB 1/2
MANTEO         PTCLDY    67  67  99 CALM      29.83R

$$

NCZ045>047-081-094-103-104-291100-
CENTRAL COAST

CITY           SKY/WX    TMP DP  RH WIND       PRES   REMARKS
FRISCO         CLEAR     76  71  85 W12G17    29.83R

$$

NCZ095-097-098-100-101-291100-
SOUTHERN COAST

CITY           SKY/WX    TMP DP  RH WIND       PRES   REMARKS
BEAUFORT       CLEAR     73  71  93 W8        29.87R
CEDAR ISLAND   NOT AVBL
JACKSONVILLE   CLEAR     70  70 100 W8        29.87R
PINEY ISLAND   SUNNY    N/A N/A N/A W9        29.85R
WILMINGTON     CLEAR     70  68  93 W7        29.89R


$$

NCZ011>013-027>030-043-044-078>080-089-090>093-098-291100-
COASTAL PLAIN

CITY           SKY/WX    TMP DP  RH WIND       PRES   REMARKS
AHOSKIE        NOT AVBL
CLINTON        CLEAR     69  69 100 CALM      29.89R FOG
ELIZABETHTOWN  CLEAR     69  69 100 CALM      29.90R
GOLDSBORO      CLEAR     70  70 100 SW5       29.85R
GREENVILLE     CLEAR     70  70 100 SW3       29.88R
HAVELOCK       NOT AVBL
KENANSVILLE    MOCLDY    70  68  94 SW5       29.88R FOG
KINSTON        CLEAR     70  68  96 CALM      29.87R
NEW BERN       CLEAR     71  71 100 W5        29.87R
RICHLANDS      CLEAR     69  69 100 SW5       29.89R FOG
ROCKY MOUNT    CLEAR     66  65  96 CALM      29.86R
WASHINGTON     CLEAR     70  69  97 CALM      29.85R
WHITEVILLE     CLEAR     69  68  95 CALM      29.90R

$$

AMZ130-135-150-152-154-156-158-170-250-252-270-ANZ085-086-088-633-658-670-291100-
MARINE OBSERVATIONS

STATION/POSITION TIME  TEMP    WIND        PRES    WAVE   SWELL
                       AIR SEA DIR/SP/G            HT/PER HT/PER
                 (UTC) (F)     (DEG/KT/KT) (MB)    (FT/S) (FT/S)
CHESAPEAKE LIGHT NOT AVBL
64 E VA BEACH    0950   64 64  280/  4/  6 1009.7    4/ 6   3/ 6
DUCK             1000   67 68     CALM     1009.4
2 E DUCK         1000      68                N/A     2/ 7
OREGON INLET     1000   70 65  310/  4/  5 1009.8
13E OREGON INLT  0948      66                N/A     3/ 7   3/ 7
HATTERAS CG      1000   75 75  270/ 18/ 20 1010.0
DIAMOND BUOY     0950   75 76  260/ 17/ 19 1009.8    6/ 7   2/10
CAPE LOOKOUT     1000   74     260/ 11/ 13 1011.2
BEAUFORT LAB     1000   74 74  290/  5/  8 1010.7
30 SE NEW RVR IN 1008   75 76  280/ 14/ 17 1011.9
30 SE NEW RVR IN 1013      76                N/A     4/ 6
27 SE WRIGHTSVLE 1008   75 76  260/ 12/ 17 1011.4
5 SE WRIGHTSVLE  1008   74 75  290/ 10/ 14 1012.2
225 S CAPE HAT   0950   77 77  220/ 16/ 17 1014.2    4/ 6   2/14
41 SE CHARLESTON 1010   78 76  270/ 14/ 16 1013.0

$$



USA.gov is the U.S. government's official web portal to all federal, state and local government web resources and services.